Terminal Aerodrome Forecast
Issued by NWS Boston, MA

Home | Current Version | Previous Version | Text Only | Print | Product List | Glossary On
Versions: 1 2 3 4 5 6 7 8 9 10 11 12 13 14 15 16 17 18 19 20 21
000
FTUS41 KBOX 211512 AAA
TAFBDL
TAF AMD
KBDL 211512Z 2115/2218 19005KT P6SM BKN250
     FM211800 20008KT P6SM FEW250
     FM220400 17004KT P6SM SCT250
     FM221600 20008KT P6SM BKN250=

USA.gov is the U.S. government's official web portal to all federal, state and local government web resources and services.